owner,sensor,date,latitude,longitude,vertical_datum,mass_concentration_of_oxygen_in_sea_water,qcFlag 
TCOON,ioos:station:TCOON:170:1,2019-03-01T03:00:00Z,27.2970,-97.4049,1.0,6.44,1111122 
TCOON,ioos:station:TCOON:170:1,2019-03-01T03:30:00Z,27.2970,-97.4049,1.0,6.55,1111122 
TCOON,ioos:station:TCOON:170:1,2019-03-01T04:30:00Z,27.2970,-97.4049,1.0,6.5,1111122 
TCOON,ioos:station:TCOON:170:1,2019-03-01T05:30:00Z,27.2970,-97.4049,1.0,6.55,1111122 
TCOON,ioos:station:TCOON:170:1,2019-03-01T06:30:00Z,27.2970,-97.4049,1.0,6.5,1111122 
TCOON,ioos:station:TCOON:170:1,2019-03-01T07:30:00Z,27.2970,-97.4049,1.0,6.54,1111122 
TCOON,ioos:station:TCOON:170:1,2019-03-01T08:30:00Z,27.2970,-97.4049,1.0,6.42,1111122 
TCOON,ioos:station:TCOON:170:1,2019-03-01T09:30:00Z,27.2970,-97.4049,1.0,6.41,1111122 
TCOON,ioos:station:TCOON:170:1,2019-03-01T10:30:00Z,27.2970,-97.4049,1.0,6.39,1111122 
TCOON,ioos:station:TCOON:170:1,2019-03-01T11:30:00Z,27.2970,-97.4049,1.0,6.41,1111122 
TCOON,ioos:station:TCOON:170:1,2019-03-01T12:30:00Z,27.2970,-97.4049,1.0,6.45,1111122 
TCOON,ioos:station:TCOON:170:1,2019-03-01T13:30:00Z,27.2970,-97.4049,1.0,6.44,1111122 
TCOON,ioos:station:TCOON:170:1,2019-03-01T14:30:00Z,27.2970,-97.4049,1.0,6.47,1111122 
TCOON,ioos:station:TCOON:170:1,2019-03-01T15:30:00Z,27.2970,-97.4049,1.0,6.51,1111122 
TCOON,ioos:station:TCOON:170:1,2019-03-01T16:30:00Z,27.2970,-97.4049,1.0,6.74,1111122 
TCOON,ioos:station:TCOON:170:1,2019-03-01T17:30:00Z,27.2970,-97.4049,1.0,6.81,1111122 
TCOON,ioos:station:TCOON:170:1,2019-03-01T18:30:00Z,27.2970,-97.4049,1.0,6.91,1111122 
TCOON,ioos:station:TCOON:170:1,2019-03-01T19:30:00Z,27.2970,-97.4049,1.0,7.08,1111122 
TCOON,ioos:station:TCOON:170:1,2019-03-01T20:30:00Z,27.2970,-97.4049,1.0,7.19,1111122 
TCOON,ioos:station:TCOON:170:1,2019-03-01T21:30:00Z,27.2970,-97.4049,1.0,7.28,1111122 
TCOON,ioos:station:TCOON:170:1,2019-03-01T22:30:00Z,27.2970,-97.4049,1.0,8.0,1111122 
TCOON,ioos:station:TCOON:170:1,2019-03-01T23:30:00Z,27.2970,-97.4049,1.0,7.37,1111122 
TCOON,ioos:station:TCOON:170:1,2019-03-02T00:30:00Z,27.2970,-97.4049,1.0,7.42,1111122 
TCOON,ioos:station:TCOON:170:1,2019-03-02T01:30:00Z,27.2970,-97.4049,1.0,7.23,1111122 
TCOON,ioos:station:TCOON:170:1,2019-03-02T02:30:00Z,27.2970,-97.4049,1.0,7.06,1111122 
TCOON,ioos:station:TCOON:170:1,2019-03-02T03:30:00Z,27.2970,-97.4049,1.0,6.97,1111122 
TCOON,ioos:station:TCOON:170:1,2019-03-02T04:30:00Z,27.2970,-97.4049,1.0,7.01,1111122 
TCOON,ioos:station:TCOON:170:1,2019-03-02T05:30:00Z,27.2970,-97.4049,1.0,6.94,1111122 
TCOON,ioos:station:TCOON:170:1,2019-03-02T06:30:00Z,27.2970,-97.4049,1.0,6.63,1111122 
TCOON,ioos:station:TCOON:170:1,2019-03-02T07:30:00Z,27.2970,-97.4049,1.0,6.69,1111122 
TCOON,ioos:station:TCOON:170:1,2019-03-02T08:30:00Z,27.2970,-97.4049,1.0,6.45,1111122 
TCOON,ioos:station:TCOON:170:1,2019-03-02T09:30:00Z,27.2970,-97.4049,1.0,6.51,1111122 
TCOON,ioos:station:TCOON:170:1,2019-03-02T10:30:00Z,27.2970,-97.4049,1.0,6.43,1111122 
TCOON,ioos:station:TCOON:170:1,2019-03-02T11:30:00Z,27.2970,-97.4049,1.0,6.29,1111122 
TCOON,ioos:station:TCOON:170:1,2019-03-02T12:30:00Z,27.2970,-97.4049,1.0,6.17,1111122 
TCOON,ioos:station:TCOON:170:1,2019-03-02T14:30:00Z,27.2970,-97.4049,1.0,6.01,1111122 
TCOON,ioos:station:TCOON:170:1,2019-03-02T15:30:00Z,27.2970,-97.4049,1.0,5.77,1111122 
TCOON,ioos:station:TCOON:170:1,2019-03-02T16:30:00Z,27.2970,-97.4049,1.0,6.1,1111122 
TCOON,ioos:station:TCOON:170:1,2019-03-02T17:30:00Z,27.2970,-97.4049,1.0,6.53,1111122 
TCOON,ioos:station:TCOON:170:1,2019-03-02T18:30:00Z,27.2970,-97.4049,1.0,6.62,1111122 
TCOON,ioos:station:TCOON:170:1,2019-03-02T19:30:00Z,27.2970,-97.4049,1.0,6.62,1111122 
TCOON,ioos:station:TCOON:170:1,2019-03-02T20:30:00Z,27.2970,-97.4049,1.0,6.91,1111122 
TCOON,ioos:station:TCOON:170:1,2019-03-02T21:30:00Z,27.2970,-97.4049,1.0,7.17,1111122 
TCOON,ioos:station:TCOON:170:1,2019-03-02T22:30:00Z,27.2970,-97.4049,1.0,7.39,1111122 
TCOON,ioos:station:TCOON:170:1,2019-03-02T23:30:00Z,27.2970,-97.4049,1.0,7.36,1111122 
TCOON,ioos:station:TCOON:170:1,2019-03-03T00:30:00Z,27.2970,-97.4049,1.0,7.33,1111122 
TCOON,ioos:station:TCOON:170:1,2019-03-03T01:30:00Z,27.2970,-97.4049,1.0,7.35,1111122 
TCOON,ioos:station:TCOON:170:1,2019-03-03T02:30:00Z,27.2970,-97.4049,1.0,7.15,1111122 
TCOON,ioos:station:TCOON:170:1,2019-03-03T03:30:00Z,27.2970,-97.4049,1.0,7.18,1111122 
TCOON,ioos:station:TCOON:170:1,2019-03-03T04:30:00Z,27.2970,-97.4049,1.0,7.12,1111122 
TCOON,ioos:station:TCOON:170:1,2019-03-03T05:30:00Z,27.2970,-97.4049,1.0,7.14,1111122 
TCOON,ioos:station:TCOON:170:1,2019-03-03T06:30:00Z,27.2970,-97.4049,1.0,6.89,1111122 
TCOON,ioos:station:TCOON:170:1,2019-03-03T07:30:00Z,27.2970,-97.4049,1.0,6.75,1111122 
TCOON,ioos:station:TCOON:170:1,2019-03-03T08:30:00Z,27.2970,-97.4049,1.0,6.81,1111122 
TCOON,ioos:station:TCOON:170:1,2019-03-03T09:30:00Z,27.2970,-97.4049,1.0,6.69,1111122 
TCOON,ioos:station:TCOON:170:1,2019-03-03T10:30:00Z,27.2970,-97.4049,1.0,6.49,1111122 
TCOON,ioos:station:TCOON:170:1,2019-03-03T11:30:00Z,27.2970,-97.4049,1.0,6.45,1111122 
TCOON,ioos:station:TCOON:170:1,2019-03-03T12:30:00Z,27.2970,-97.4049,1.0,6.27,1111122 
TCOON,ioos:station:TCOON:170:1,2019-03-03T13:30:00Z,27.2970,-97.4049,1.0,6.12,1111122 
TCOON,ioos:station:TCOON:170:1,2019-03-03T14:30:00Z,27.2970,-97.4049,1.0,6.39,1111122 
TCOON,ioos:station:TCOON:170:1,2019-03-03T15:30:00Z,27.2970,-97.4049,1.0,6.41,1111122 
TCOON,ioos:station:TCOON:170:1,2019-03-03T16:30:00Z,27.2970,-97.4049,1.0,6.4,1111122 
TCOON,ioos:station:TCOON:170:1,2019-03-03T17:30:00Z,27.2970,-97.4049,1.0,6.44,1111122 
TCOON,ioos:station:TCOON:170:1,2019-03-03T18:30:00Z,27.2970,-97.4049,1.0,7.07,1111122 
TCOON,ioos:station:TCOON:170:1,2019-03-03T19:30:00Z,27.2970,-97.4049,1.0,7.05,1111122 
TCOON,ioos:station:TCOON:170:1,2019-03-03T20:30:00Z,27.2970,-97.4049,1.0,6.84,1111122 
TCOON,ioos:station:TCOON:170:1,2019-03-03T21:30:00Z,27.2970,-97.4049,1.0,6.77,1111122 
TCOON,ioos:station:TCOON:170:1,2019-03-03T22:30:00Z,27.2970,-97.4049,1.0,6.97,1111122 
TCOON,ioos:station:TCOON:170:1,2019-03-03T23:30:00Z,27.2970,-97.4049,1.0,7.0,1111122 
TCOON,ioos:station:TCOON:170:1,2019-03-04T00:30:00Z,27.2970,-97.4049,1.0,7.01,1111122 
TCOON,ioos:station:TCOON:170:1,2019-03-04T01:30:00Z,27.2970,-97.4049,1.0,7.05,1111122 
TCOON,ioos:station:TCOON:170:1,2019-03-04T02:30:00Z,27.2970,-97.4049,1.0,7.11,1111122 
TCOON,ioos:station:TCOON:170:1,2019-03-04T03:30:00Z,27.2970,-97.4049,1.0,7.05,1111122 
TCOON,ioos:station:TCOON:170:1,2019-03-04T04:30:00Z,27.2970,-97.4049,1.0,7.18,1111122 
TCOON,ioos:station:TCOON:170:1,2019-03-04T05:30:00Z,27.2970,-97.4049,1.0,7.29,1111122 
TCOON,ioos:station:TCOON:170:1,2019-03-04T06:30:00Z,27.2970,-97.4049,1.0,7.36,1111122 
TCOON,ioos:station:TCOON:170:1,2019-03-04T07:30:00Z,27.2970,-97.4049,1.0,7.42,1111122 
TCOON,ioos:station:TCOON:170:1,2019-03-04T08:30:00Z,27.2970,-97.4049,1.0,7.48,1111122 
TCOON,ioos:station:TCOON:170:1,2019-03-04T09:30:00Z,27.2970,-97.4049,1.0,7.45,1111122 
TCOON,ioos:station:TCOON:170:1,2019-03-04T10:30:00Z,27.2970,-97.4049,1.0,7.5,1111122 
TCOON,ioos:station:TCOON:170:1,2019-03-04T11:30:00Z,27.2970,-97.4049,1.0,7.52,1111122 
TCOON,ioos:station:TCOON:170:1,2019-03-04T12:30:00Z,27.2970,-97.4049,1.0,7.64,1111122 
TCOON,ioos:station:TCOON:170:1,2019-03-04T13:30:00Z,27.2970,-97.4049,1.0,7.67,1111122 
TCOON,ioos:station:TCOON:170:1,2019-03-04T14:30:00Z,27.2970,-97.4049,1.0,7.74,1111122 
TCOON,ioos:station:TCOON:170:1,2019-03-04T15:30:00Z,27.2970,-97.4049,1.0,7.83,1111122 
TCOON,ioos:station:TCOON:170:1,2019-03-04T16:30:00Z,27.2970,-97.4049,1.0,7.95,1111122 
TCOON,ioos:station:TCOON:170:1,2019-03-04T17:30:00Z,27.2970,-97.4049,1.0,7.97,1111122 
TCOON,ioos:station:TCOON:170:1,2019-03-04T18:30:00Z,27.2970,-97.4049,1.0,8.03,1111122 
TCOON,ioos:station:TCOON:170:1,2019-03-04T19:30:00Z,27.2970,-97.4049,1.0,8.06,1111122 
TCOON,ioos:station:TCOON:170:1,2019-03-04T20:30:00Z,27.2970,-97.4049,1.0,8.1,1111122 
TCOON,ioos:station:TCOON:170:1,2019-03-04T21:30:00Z,27.2970,-97.4049,1.0,8.16,1111122 
TCOON,ioos:station:TCOON:170:1,2019-03-04T22:30:00Z,27.2970,-97.4049,1.0,8.19,1111122 
TCOON,ioos:station:TCOON:170:1,2019-03-04T23:30:00Z,27.2970,-97.4049,1.0,8.15,1111122 
TCOON,ioos:station:TCOON:170:1,2019-03-05T00:30:00Z,27.2970,-97.4049,1.0,8.15,1111122 
TCOON,ioos:station:TCOON:170:1,2019-03-05T01:30:00Z,27.2970,-97.4049,1.0,8.15,1111122 
TCOON,ioos:station:TCOON:170:1,2019-03-05T02:30:00Z,27.2970,-97.4049,1.0,8.17,1111122 
TCOON,ioos:station:TCOON:170:1,2019-03-05T03:30:00Z,27.2970,-97.4049,1.0,8.2,1111122 
TCOON,ioos:station:TCOON:170:1,2019-03-05T04:30:00Z,27.2970,-97.4049,1.0,8.24,1111122 
TCOON,ioos:station:TCOON:170:1,2019-03-05T05:30:00Z,27.2970,-97.4049,1.0,8.25,1111122 
TCOON,ioos:station:TCOON:170:1,2019-03-05T06:30:00Z,27.2970,-97.4049,1.0,8.27,1111122 
TCOON,ioos:station:TCOON:170:1,2019-03-05T07:30:00Z,27.2970,-97.4049,1.0,8.38,1111122 
TCOON,ioos:station:TCOON:170:1,2019-03-05T08:30:00Z,27.2970,-97.4049,1.0,8.4,1111122 
TCOON,ioos:station:TCOON:170:1,2019-03-05T09:30:00Z,27.2970,-97.4049,1.0,8.42,1111122 
TCOON,ioos:station:TCOON:170:1,2019-03-05T10:30:00Z,27.2970,-97.4049,1.0,8.4,1111122 
TCOON,ioos:station:TCOON:170:1,2019-03-05T11:30:00Z,27.2970,-97.4049,1.0,8.49,1111122 
TCOON,ioos:station:TCOON:170:1,2019-03-05T12:30:00Z,27.2970,-97.4049,1.0,8.52,1111122 
TCOON,ioos:station:TCOON:170:1,2019-03-05T13:30:00Z,27.2970,-97.4049,1.0,8.59,1111122 
TCOON,ioos:station:TCOON:170:1,2019-03-05T14:30:00Z,27.2970,-97.4049,1.0,8.74,1111122 
TCOON,ioos:station:TCOON:170:1,2019-03-05T15:30:00Z,27.2970,-97.4049,1.0,8.89,1111122 
TCOON,ioos:station:TCOON:170:1,2019-03-05T16:30:00Z,27.2970,-97.4049,1.0,9.05,1111122 
TCOON,ioos:station:TCOON:170:1,2019-03-05T17:30:00Z,27.2970,-97.4049,1.0,9.2,1111122 
TCOON,ioos:station:TCOON:170:1,2019-03-05T18:30:00Z,27.2970,-97.4049,1.0,9.48,1111122 
TCOON,ioos:station:TCOON:170:1,2019-03-05T19:30:00Z,27.2970,-97.4049,1.0,9.54,1111122 
TCOON,ioos:station:TCOON:170:1,2019-03-05T20:30:00Z,27.2970,-97.4049,1.0,9.61,1111122 
TCOON,ioos:station:TCOON:170:1,2019-03-05T22:30:00Z,27.2970,-97.4049,1.0,9.44,1111122 
TCOON,ioos:station:TCOON:170:1,2019-03-05T23:30:00Z,27.2970,-97.4049,1.0,9.57,1111122 
TCOON,ioos:station:TCOON:170:1,2019-03-06T00:30:00Z,27.2970,-97.4049,1.0,9.04,1111122 
TCOON,ioos:station:TCOON:170:1,2019-03-06T01:30:00Z,27.2970,-97.4049,1.0,9.0,1111122 
TCOON,ioos:station:TCOON:170:1,2019-03-06T11:30:00Z,27.2970,-97.4049,1.0,8.66,1111122 
TCOON,ioos:station:TCOON:170:1,2019-03-06T12:30:00Z,27.2970,-97.4049,1.0,8.68,1111122 
TCOON,ioos:station:TCOON:170:1,2019-03-06T14:30:00Z,27.2970,-97.4049,1.0,8.72,1111122 
TCOON,ioos:station:TCOON:170:1,2019-03-06T15:30:00Z,27.2970,-97.4049,1.0,8.87,1111122 
TCOON,ioos:station:TCOON:170:1,2019-03-06T16:30:00Z,27.2970,-97.4049,1.0,9.03,1111122 
TCOON,ioos:station:TCOON:170:1,2019-03-06T17:30:00Z,27.2970,-97.4049,1.0,9.38,1111122 
TCOON,ioos:station:TCOON:170:1,2019-03-06T18:30:00Z,27.2970,-97.4049,1.0,9.55,1111122 
TCOON,ioos:station:TCOON:170:1,2019-03-06T19:30:00Z,27.2970,-97.4049,1.0,9.47,1111122 
TCOON,ioos:station:TCOON:170:1,2019-03-06T21:30:00Z,27.2970,-97.4049,1.0,9.08,1111122 
TCOON,ioos:station:TCOON:170:1,2019-03-07T03:30:00Z,27.2970,-97.4049,1.0,9.58,1111122 
TCOON,ioos:station:TCOON:170:1,2019-03-07T04:30:00Z,27.2970,-97.4049,1.0,10.22,1111122 
TCOON,ioos:station:TCOON:170:1,2019-03-07T06:30:00Z,27.2970,-97.4049,1.0,9.1,1111122 
TCOON,ioos:station:TCOON:170:1,2019-03-07T07:30:00Z,27.2970,-97.4049,1.0,9.12,1111122 
TCOON,ioos:station:TCOON:170:1,2019-03-07T08:30:00Z,27.2970,-97.4049,1.0,9.09,1111122 
TCOON,ioos:station:TCOON:170:1,2019-03-07T09:30:00Z,27.2970,-97.4049,1.0,9.11,1111122 
TCOON,ioos:station:TCOON:170:1,2019-03-07T10:30:00Z,27.2970,-97.4049,1.0,8.82,1111122 
TCOON,ioos:station:TCOON:170:1,2019-03-07T11:30:00Z,27.2970,-97.4049,1.0,8.79,1111122 
TCOON,ioos:station:TCOON:170:1,2019-03-07T12:30:00Z,27.2970,-97.4049,1.0,8.62,1111122 
TCOON,ioos:station:TCOON:170:1,2019-03-07T13:30:00Z,27.2970,-97.4049,1.0,8.63,1111122 
TCOON,ioos:station:TCOON:170:1,2019-03-07T14:30:00Z,27.2970,-97.4049,1.0,9.04,1111122 
TCOON,ioos:station:TCOON:170:1,2019-03-07T15:30:00Z,27.2970,-97.4049,1.0,9.34,1111122 
TCOON,ioos:station:TCOON:170:1,2019-03-07T16:30:00Z,27.2970,-97.4049,1.0,9.6,1111122 
TCOON,ioos:station:TCOON:170:1,2019-03-07T17:30:00Z,27.2970,-97.4049,1.0,10.13,1111122 
TCOON,ioos:station:TCOON:170:1,2019-03-07T18:30:00Z,27.2970,-97.4049,1.0,10.38,1111122 
TCOON,ioos:station:TCOON:170:1,2019-03-07T19:30:00Z,27.2970,-97.4049,1.0,10.05,1111122 
TCOON,ioos:station:TCOON:170:1,2019-03-07T20:30:00Z,27.2970,-97.4049,1.0,9.91,1111122 
TCOON,ioos:station:TCOON:170:1,2019-03-07T21:30:00Z,27.2970,-97.4049,1.0,9.27,1111122 
TCOON,ioos:station:TCOON:170:1,2019-03-07T22:30:00Z,27.2970,-97.4049,1.0,9.78,1111122 
TCOON,ioos:station:TCOON:170:1,2019-03-07T23:30:00Z,27.2970,-97.4049,1.0,10.58,1111122 
TCOON,ioos:station:TCOON:170:1,2019-03-08T00:30:00Z,27.2970,-97.4049,1.0,11.08,1111122 
TCOON,ioos:station:TCOON:170:1,2019-03-08T01:30:00Z,27.2970,-97.4049,1.0,10.78,1111122 
TCOON,ioos:station:TCOON:170:1,2019-03-08T05:30:00Z,27.2970,-97.4049,1.0,10.03,1111122 
TCOON,ioos:station:TCOON:170:1,2019-03-08T16:30:00Z,27.2970,-97.4049,1.0,10.39,1111122 
TCOON,ioos:station:TCOON:170:1,2019-03-08T17:30:00Z,27.2970,-97.4049,1.0,10.56,1111122 
TCOON,ioos:station:TCOON:170:1,2019-03-08T18:30:00Z,27.2970,-97.4049,1.0,10.55,1111122 
TCOON,ioos:station:TCOON:170:1,2019-03-08T19:30:00Z,27.2970,-97.4049,1.0,10.18,1111122 
TCOON,ioos:station:TCOON:170:1,2019-03-08T20:30:00Z,27.2970,-97.4049,1.0,10.42,1111122 
TCOON,ioos:station:TCOON:170:1,2019-03-08T21:30:00Z,27.2970,-97.4049,1.0,9.85,1111122 
TCOON,ioos:station:TCOON:170:1,2019-03-08T22:30:00Z,27.2970,-97.4049,1.0,9.59,1111122 
TCOON,ioos:station:TCOON:170:1,2019-03-08T23:30:00Z,27.2970,-97.4049,1.0,9.41,1111122 
TCOON,ioos:station:TCOON:170:1,2019-03-09T00:30:00Z,27.2970,-97.4049,1.0,9.18,1111122 
TCOON,ioos:station:TCOON:170:1,2019-03-09T01:30:00Z,27.2970,-97.4049,1.0,8.9,1111122 
TCOON,ioos:station:TCOON:170:1,2019-03-09T02:30:00Z,27.2970,-97.4049,1.0,8.69,1111122 
TCOON,ioos:station:TCOON:170:1,2019-03-09T03:30:00Z,27.2970,-97.4049,1.0,8.66,1111122 
TCOON,ioos:station:TCOON:170:1,2019-03-09T04:30:00Z,27.2970,-97.4049,1.0,8.72,1111122 
TCOON,ioos:station:TCOON:170:1,2019-03-09T05:30:00Z,27.2970,-97.4049,1.0,8.43,1111122 
TCOON,ioos:station:TCOON:170:1,2019-03-09T06:30:00Z,27.2970,-97.4049,1.0,8.14,1111122 
TCOON,ioos:station:TCOON:170:1,2019-03-09T07:30:00Z,27.2970,-97.4049,1.0,8.19,1111122 
TCOON,ioos:station:TCOON:170:1,2019-03-09T08:30:00Z,27.2970,-97.4049,1.0,8.07,1111122 
TCOON,ioos:station:TCOON:170:1,2019-03-09T09:30:00Z,27.2970,-97.4049,1.0,7.62,1111122 
TCOON,ioos:station:TCOON:170:1,2019-03-09T10:30:00Z,27.2970,-97.4049,1.0,7.63,1111122 
TCOON,ioos:station:TCOON:170:1,2019-03-09T11:30:00Z,27.2970,-97.4049,1.0,7.46,1111122 
TCOON,ioos:station:TCOON:170:1,2019-03-09T12:30:00Z,27.2970,-97.4049,1.0,7.42,1111122 
TCOON,ioos:station:TCOON:170:1,2019-03-09T13:30:00Z,27.2970,-97.4049,1.0,7.68,1111122 
TCOON,ioos:station:TCOON:170:1,2019-03-09T15:30:00Z,27.2970,-97.4049,1.0,7.93,1111122 
TCOON,ioos:station:TCOON:170:1,2019-03-09T16:30:00Z,27.2970,-97.4049,1.0,7.94,1111122 
TCOON,ioos:station:TCOON:170:1,2019-03-09T17:30:00Z,27.2970,-97.4049,1.0,8.39,1111122 
TCOON,ioos:station:TCOON:170:1,2019-03-09T18:30:00Z,27.2970,-97.4049,1.0,8.83,1111122 
TCOON,ioos:station:TCOON:170:1,2019-03-09T19:30:00Z,27.2970,-97.4049,1.0,9.26,1111122 
TCOON,ioos:station:TCOON:170:1,2019-03-09T20:30:00Z,27.2970,-97.4049,1.0,9.65,1111122 
TCOON,ioos:station:TCOON:170:1,2019-03-09T21:30:00Z,27.2970,-97.4049,1.0,9.37,1111122 
TCOON,ioos:station:TCOON:170:1,2019-03-09T22:30:00Z,27.2970,-97.4049,1.0,9.34,1111122 
TCOON,ioos:station:TCOON:170:1,2019-03-09T23:30:00Z,27.2970,-97.4049,1.0,8.9,1111122 
TCOON,ioos:station:TCOON:170:1,2019-03-10T00:30:00Z,27.2970,-97.4049,1.0,9.36,1111122 
TCOON,ioos:station:TCOON:170:1,2019-03-10T01:30:00Z,27.2970,-97.4049,1.0,8.74,1111122 
TCOON,ioos:station:TCOON:170:1,2019-03-10T02:30:00Z,27.2970,-97.4049,1.0,8.69,1111122 
TCOON,ioos:station:TCOON:170:1,2019-03-10T03:30:00Z,27.2970,-97.4049,1.0,8.3,1111122 
TCOON,ioos:station:TCOON:170:1,2019-03-10T04:30:00Z,27.2970,-97.4049,1.0,8.22,1111122 
TCOON,ioos:station:TCOON:170:1,2019-03-10T05:30:00Z,27.2970,-97.4049,1.0,7.91,1111122 
TCOON,ioos:station:TCOON:170:1,2019-03-10T06:30:00Z,27.2970,-97.4049,1.0,7.74,1111122 
TCOON,ioos:station:TCOON:170:1,2019-03-10T07:30:00Z,27.2970,-97.4049,1.0,7.86,1111122 
TCOON,ioos:station:TCOON:170:1,2019-03-10T08:30:00Z,27.2970,-97.4049,1.0,7.95,1111122 
TCOON,ioos:station:TCOON:170:1,2019-03-10T09:30:00Z,27.2970,-97.4049,1.0,7.91,1111122 
TCOON,ioos:station:TCOON:170:1,2019-03-10T10:30:00Z,27.2970,-97.4049,1.0,8.43,1111122 
TCOON,ioos:station:TCOON:170:1,2019-03-10T11:30:00Z,27.2970,-97.4049,1.0,8.28,1111122 
TCOON,ioos:station:TCOON:170:1,2019-03-10T12:30:00Z,27.2970,-97.4049,1.0,8.16,1111122 
TCOON,ioos:station:TCOON:170:1,2019-03-10T13:30:00Z,27.2970,-97.4049,1.0,7.79,1111122 
TCOON,ioos:station:TCOON:170:1,2019-03-10T14:30:00Z,27.2970,-97.4049,1.0,7.78,1111122 
TCOON,ioos:station:TCOON:170:1,2019-03-10T15:30:00Z,27.2970,-97.4049,1.0,8.04,1111122 
TCOON,ioos:station:TCOON:170:1,2019-03-10T16:30:00Z,27.2970,-97.4049,1.0,8.38,1111122 
TCOON,ioos:station:TCOON:170:1,2019-03-10T17:30:00Z,27.2970,-97.4049,1.0,8.68,1111122 
TCOON,ioos:station:TCOON:170:1,2019-03-10T18:30:00Z,27.2970,-97.4049,1.0,9.16,1111122 
TCOON,ioos:station:TCOON:170:1,2019-03-10T19:30:00Z,27.2970,-97.4049,1.0,9.29,1111122 
TCOON,ioos:station:TCOON:170:1,2019-03-10T20:30:00Z,27.2970,-97.4049,1.0,9.39,1111122 
TCOON,ioos:station:TCOON:170:1,2019-03-10T21:30:00Z,27.2970,-97.4049,1.0,9.7,1111122 
TCOON,ioos:station:TCOON:170:1,2019-03-11T03:30:00Z,27.2970,-97.4049,1.0,6.84,1111122 
TCOON,ioos:station:TCOON:170:1,2019-03-11T04:30:00Z,27.2970,-97.4049,1.0,6.66,1111122 
TCOON,ioos:station:TCOON:170:1,2019-03-11T05:30:00Z,27.2970,-97.4049,1.0,6.58,1111122 
TCOON,ioos:station:TCOON:170:1,2019-03-11T06:30:00Z,27.2970,-97.4049,1.0,6.29,1111122 
TCOON,ioos:station:TCOON:170:1,2019-03-11T07:30:00Z,27.2970,-97.4049,1.0,6.66,1111122 
TCOON,ioos:station:TCOON:170:1,2019-03-11T08:30:00Z,27.2970,-97.4049,1.0,6.8,1111122 
TCOON,ioos:station:TCOON:170:1,2019-03-11T09:30:00Z,27.2970,-97.4049,1.0,6.78,1111122 
TCOON,ioos:station:TCOON:170:1,2019-03-11T10:30:00Z,27.2970,-97.4049,1.0,7.17,1111122 
TCOON,ioos:station:TCOON:170:1,2019-03-11T11:30:00Z,27.2970,-97.4049,1.0,7.12,1111122 
TCOON,ioos:station:TCOON:170:1,2019-03-11T12:30:00Z,27.2970,-97.4049,1.0,7.36,1111122 
TCOON,ioos:station:TCOON:170:1,2019-03-11T13:30:00Z,27.2970,-97.4049,1.0,6.72,1111122 
TCOON,ioos:station:TCOON:170:1,2019-03-11T14:30:00Z,27.2970,-97.4049,1.0,6.86,1111122 
TCOON,ioos:station:TCOON:170:1,2019-03-11T15:30:00Z,27.2970,-97.4049,1.0,7.75,1111122 
TCOON,ioos:station:TCOON:170:1,2019-03-11T16:30:00Z,27.2970,-97.4049,1.0,7.82,1111122 
TCOON,ioos:station:TCOON:170:1,2019-03-11T17:30:00Z,27.2970,-97.4049,1.0,7.97,1111122 
TCOON,ioos:station:TCOON:170:1,2019-03-11T18:30:00Z,27.2970,-97.4049,1.0,8.06,1111122 
TCOON,ioos:station:TCOON:170:1,2019-03-11T19:30:00Z,27.2970,-97.4049,1.0,8.19,1111122 
TCOON,ioos:station:TCOON:170:1,2019-03-11T20:30:00Z,27.2970,-97.4049,1.0,8.26,1111122 
TCOON,ioos:station:TCOON:170:1,2019-03-11T21:30:00Z,27.2970,-97.4049,1.0,8.44,1111122 
TCOON,ioos:station:TCOON:170:1,2019-03-11T22:30:00Z,27.2970,-97.4049,1.0,8.16,1111122 
TCOON,ioos:station:TCOON:170:1,2019-03-11T23:30:00Z,27.2970,-97.4049,1.0,7.93,1111122 
TCOON,ioos:station:TCOON:170:1,2019-03-12T00:30:00Z,27.2970,-97.4049,1.0,7.06,1111122 
TCOON,ioos:station:TCOON:170:1,2019-03-12T01:30:00Z,27.2970,-97.4049,1.0,6.8,1111122 
TCOON,ioos:station:TCOON:170:1,2019-03-12T02:30:00Z,27.2970,-97.4049,1.0,6.33,1111122 
TCOON,ioos:station:TCOON:170:1,2019-03-12T03:30:00Z,27.2970,-97.4049,1.0,6.18,1111122 
TCOON,ioos:station:TCOON:170:1,2019-03-12T04:30:00Z,27.2970,-97.4049,1.0,5.92,1111122 
TCOON,ioos:station:TCOON:170:1,2019-03-12T05:30:00Z,27.2970,-97.4049,1.0,5.87,1111122 
TCOON,ioos:station:TCOON:170:1,2019-03-12T06:30:00Z,27.2970,-97.4049,1.0,5.84,1111122 
TCOON,ioos:station:TCOON:170:1,2019-03-12T07:30:00Z,27.2970,-97.4049,1.0,6.63,1111122 
TCOON,ioos:station:TCOON:170:1,2019-03-12T09:30:00Z,27.2970,-97.4049,1.0,6.12,1111122 
TCOON,ioos:station:TCOON:170:1,2019-03-12T10:30:00Z,27.2970,-97.4049,1.0,6.47,1111122 
TCOON,ioos:station:TCOON:170:1,2019-03-12T11:30:00Z,27.2970,-97.4049,1.0,6.38,1111122 
TCOON,ioos:station:TCOON:170:1,2019-03-12T12:30:00Z,27.2970,-97.4049,1.0,6.56,1111122 
TCOON,ioos:station:TCOON:170:1,2019-03-12T13:30:00Z,27.2970,-97.4049,1.0,6.71,1111122 
TCOON,ioos:station:TCOON:170:1,2019-03-12T14:30:00Z,27.2970,-97.4049,1.0,7.12,1111122 
TCOON,ioos:station:TCOON:170:1,2019-03-12T15:30:00Z,27.2970,-97.4049,1.0,7.68,1111122 
TCOON,ioos:station:TCOON:170:1,2019-03-12T16:30:00Z,27.2970,-97.4049,1.0,7.69,1111122 
TCOON,ioos:station:TCOON:170:1,2019-03-12T17:30:00Z,27.2970,-97.4049,1.0,7.79,1111122 
TCOON,ioos:station:TCOON:170:1,2019-03-12T18:30:00Z,27.2970,-97.4049,1.0,8.17,1111122 
TCOON,ioos:station:TCOON:170:1,2019-03-12T19:30:00Z,27.2970,-97.4049,1.0,8.12,1111122 
TCOON,ioos:station:TCOON:170:1,2019-03-12T20:30:00Z,27.2970,-97.4049,1.0,7.92,1111122 
TCOON,ioos:station:TCOON:170:1,2019-03-12T21:30:00Z,27.2970,-97.4049,1.0,8.0,1111122 
TCOON,ioos:station:TCOON:170:1,2019-03-12T22:30:00Z,27.2970,-97.4049,1.0,8.13,1111122 
TCOON,ioos:station:TCOON:170:1,2019-03-12T23:30:00Z,27.2970,-97.4049,1.0,7.77,1111122 
TCOON,ioos:station:TCOON:170:1,2019-03-13T00:30:00Z,27.2970,-97.4049,1.0,7.28,1111122 
TCOON,ioos:station:TCOON:170:1,2019-03-13T01:30:00Z,27.2970,-97.4049,1.0,6.95,1111122 
TCOON,ioos:station:TCOON:170:1,2019-03-13T02:30:00Z,27.2970,-97.4049,1.0,6.69,1111122 
TCOON,ioos:station:TCOON:170:1,2019-03-13T03:30:00Z,27.2970,-97.4049,1.0,6.79,1111122 
TCOON,ioos:station:TCOON:170:1,2019-03-13T04:30:00Z,27.2970,-97.4049,1.0,6.79,1111122 
TCOON,ioos:station:TCOON:170:1,2019-03-13T05:30:00Z,27.2970,-97.4049,1.0,6.64,1111122 
TCOON,ioos:station:TCOON:170:1,2019-03-13T06:30:00Z,27.2970,-97.4049,1.0,6.35,1111122 
TCOON,ioos:station:TCOON:170:1,2019-03-13T07:30:00Z,27.2970,-97.4049,1.0,6.26,1111122 
TCOON,ioos:station:TCOON:170:1,2019-03-13T08:30:00Z,27.2970,-97.4049,1.0,5.98,1111122 
TCOON,ioos:station:TCOON:170:1,2019-03-13T09:30:00Z,27.2970,-97.4049,1.0,6.1,1111122 
TCOON,ioos:station:TCOON:170:1,2019-03-13T10:30:00Z,27.2970,-97.4049,1.0,6.3,1111122 
TCOON,ioos:station:TCOON:170:1,2019-03-13T11:30:00Z,27.2970,-97.4049,1.0,6.27,1111122 
TCOON,ioos:station:TCOON:170:1,2019-03-13T12:30:00Z,27.2970,-97.4049,1.0,6.15,1111122 
TCOON,ioos:station:TCOON:170:1,2019-03-13T13:30:00Z,27.2970,-97.4049,1.0,6.17,1111122 
TCOON,ioos:station:TCOON:170:1,2019-03-13T14:30:00Z,27.2970,-97.4049,1.0,6.09,1111122 
TCOON,ioos:station:TCOON:170:1,2019-03-13T15:30:00Z,27.2970,-97.4049,1.0,6.09,1111122 
TCOON,ioos:station:TCOON:170:1,2019-03-13T16:30:00Z,27.2970,-97.4049,1.0,6.0,1111122 
TCOON,ioos:station:TCOON:170:1,2019-03-13T17:30:00Z,27.2970,-97.4049,1.0,5.75,1111122 
TCOON,ioos:station:TCOON:170:1,2019-03-13T18:30:00Z,27.2970,-97.4049,1.0,5.86,1111122 
TCOON,ioos:station:TCOON:170:1,2019-03-13T19:30:00Z,27.2970,-97.4049,1.0,5.85,1111122 
TCOON,ioos:station:TCOON:170:1,2019-03-13T20:30:00Z,27.2970,-97.4049,1.0,6.28,1111122 
TCOON,ioos:station:TCOON:170:1,2019-03-13T21:30:00Z,27.2970,-97.4049,1.0,6.42,1111122 
TCOON,ioos:station:TCOON:170:1,2019-03-13T22:30:00Z,27.2970,-97.4049,1.0,6.45,1111122 
TCOON,ioos:station:TCOON:170:1,2019-03-13T23:30:00Z,27.2970,-97.4049,1.0,6.47,1111122 
TCOON,ioos:station:TCOON:170:1,2019-03-14T00:30:00Z,27.2970,-97.4049,1.0,6.44,1111122 
TCOON,ioos:station:TCOON:170:1,2019-03-14T01:30:00Z,27.2970,-97.4049,1.0,6.19,1111122 
TCOON,ioos:station:TCOON:170:1,2019-03-14T02:30:00Z,27.2970,-97.4049,1.0,6.08,1111122 